Location: Dziadowski
(50.3833°N, 20.0333°E)
Time: 23:17:09
(UTC+00:00)

CZ-2D R/B - Pass Details

Date: 18 January 2026
Orbit: 388 x 398 km, 97.4° (Epoch: 16 February)

Event Time Altitude Azimuth Distance (km) Brightness Sun altitude
Rises 05:49:14 0° 7° (N) 2,334 6.4 -6.8°
Reaches altitude 10° 05:51:17 10° 1° (N) 1,464 5.3 -6.5°
Maximum altitude 05:54:16 44° 288° (WNW) 570 3.0 -6.1°
Drops below altitude 10° 05:57:13 10° 215° (SW) 1,438 5.4 -5.6°
Sets 05:59:12 0° 209° (SSW) 2,286 6.5 -5.3°
